Theta_e
315 311 306 303 303 304 304 303 299 299 303 309 310 309 304 300 299 299 300 301 303 305 310 311 310 308 306 306 306 309 314 313 310 308 309 309 310 310 310 308 308 312 311 310 310 310 311
306 305 305 305 305 306 308 309 307 306 308 309 308 303 300 299 299 299 299 299 300 303 309 310 309 306 307 303 306 309 311 309 308 309 309 309 308 308 308 309 309 308 310 310 310 311 310
310 310 310 310 310 310 310 309 309 309 309 309 309 308 302 302 301 300 299 299 300 306 308 310 307 306 310 304 308 310 309 308 308 309 307 308 309 310 308 310 308 310 312 310 309 309 311
309 309 309 309 309 309 309 309 309 309 309 309 308 307 301 300 300 300 300 299 302 309 309 308 305 309 302 305 308 309 309 308 309 309 309 310 310 309 310 309 307 310 309 310 307 310 310
309 309 309 308 308 308 308 308 308 309 309 308 307 303 299 299 299 299 299 301 308 308 308 307 309 306 303 307 308 308 308 308 308 308 309 309 309 308 309 308 305 303 305 306 306 308 310
309 309 309 309 309 309 309 308 308 308 308 307 306 304 301 300 300 299 305 309 307 308 311 310 308 308 306 307 308 308 309 308 307 307 307 307 306 308 306 305 307 305 306 305 307 308 310
307 307 308 308 308 308 309 308 308 308 308 307 306 302 301 300 300 304 308 309 305 306 305 305 306 305 305 306 308 308 308 308 307 307 307 306 306 307 308 307 304 303 302 304 303 305 309
306 306 306 306 307 307 307 307 307 307 307 307 306 305 302 301 300 305 308 303 304 304 307 305 305 304 304 305 306 307 308 307 307 307 304 307 307 305 304 305 307 307 307 308 306 305 306
305 305 305 305 305 305 306 306 306 306 306 306 305 305 304 302 301 300 304 307 308 305 306 305 305 305 305 304 305 305 305 304 306 305 305 306 306 305 304 305 306 306 308 305 306 305 305
305 304 304 304 304 303 303 304 305 305 305 304 304 305 305 303 300 302 305 307 307 305 306 306 307 307 306 305 306 305 305 305 306 305 304 305 304 304 305 305 304 306 304 306 305 307 309
303 303 303 303 302 302 303 303 304 305 303 303 303 303 304 303 302 302 303 305 306 303 307 307 306 306 306 305 306 307 305 307 306 306 304 306 305 305 305 305 304 305 304 305 306 306 304
303 303 303 303 303 303 303 303 303 304 303 302 302 302 303 302 301 302 305 306 303 303 304 308 307 307 307 306 306 305 305 305 304 306 305 304 303 304 305 305 304 304 304 302 301 303 308
304 304 304 304 304 303 303 303 303 303 303 302 301 300 301 301 301 304 306 301 298 303 302 307 309 307 307 308 307 306 306 306 307 308 306 305 305 305 304 306 304 304 306 311 310 308 311
303 303 304 304 304 304 303 303 303 302 302 300 300 299 300 301 305 305 305 301 298 301 302 306 306 305 308 307 306 307 306 306 303 303 305 308 311 305 304 305 306 303 306 311 312 311 308
302 302 302 303 304 304 304 303 303 302 301 300 299 299 301 302 305 305 305 305 298 298 305 306 303 307 307 307 307 307 305 305 303 301 307 306 307 304 305 304 305 305 307 305 308 305 306
302 302 303 303 304 303 303 303 303 302 301 301 299 300 300 304 304 304 305 305 303 301 306 305 306 303 306 306 308 308 306 304 306 303 304 306 308 306 305 304 304 304 304 308 307 312 312
301 301 301 302 303 302 301 303 302 302 302 300 299 297 299 303 304 303 304 301 303 303 304 305 305 303 305 308 308 307 306 305 305 305 306 306 307 307 306 306 306 306 306 305 306 307 311
300 301 301 301 301 301 301 301 301 302 301 299 298 298 299 299 303 299 300 302 303 303 304 305 304 305 306 305 304 304 303 305 303 304 307 306 304 307 306 304 303 304 305 305 310 310 308
300 300 300 300 300 300 300 301 301 300 301 300 296 296 298 302 298 297 299 301 303 303 303 303 304 304 305 306 305 304 307 305 303 305 305 306 306 305 302 302 303 305 307 307 306 306 307
300 300 300 300 300 300 300 301 301 300 301 300 299 299 294 299 298 300 302 301 301 300 301 302 302 302 304 302 303 305 304 304 304 305 306 306 305 303 303 302 303 303 304 303 303 304 302
299 300 300 299 300 300 300 300 300 300 300 300 297 298 297 294 296 298 299 299 302 302 301 301 301 303 302 302 301 301 303 303 302 304 305 306 307 303 303 303 304 304 303 302 303 302 302
299 299 299 299 299 299 300 300 299 299 298 299 299 300 299 297 297 297 296 293 299 299 299 299 300 299 300 301 298 297 302 301 301 301 303 302 304 302 300 300 301 303 302 301 302 301 301
299 300 300 300 299 299 299 298 299 298 298 299 297 297 299 299 297 297 296 297 299 298 298 298 299 300 301 300 300 302 301 300 301 300 300 303 303 302 302 297 298 300 295 297 293 286 287
299 300 300 300 300 300 298 299 299 299 298 298 297 295 297 299 298 298 298 297 297 298 299 299 299 299 297 298 298 296 296 297 299 300 301 302 300 302 301 297 300 290 288 286 285 283 283
300 300 300 300 299 300 297 297 298 298 298 298 298 296 295 298 298 297 297 297 297 296 297 297 297 298 296 297 300 299 291 291 289 295 297 300 301 301 300 298 293 291 287 286 285 282 279
299 299 298 298 299 299 297 297 297 298 298 298 297 296 294 296 297 296 297 296 297 297 296 296 293 293 297 298 300 300 300 294 292 291 295 296 298 300 299 300 299 283 283 281 282 284 279
298 298 298 298 299 298 298 297 298 298 298 297 297 297 296 295 295 295 297 294 296 297 297 289 293 297 296 300 301 301 297 292 296 291 295 296 297 298 298 300 284 278 278 281 289 281 278
298 298 298 298 298 298 298 297 297 297 297 297 297 297 297 296 295 295 295 296 296 297 296 292 296 297 297 298 298 294 297 294 292 288 289 292 291 292 293 298 293 275 279 283 276 276 277
297 297 297 297 297 297 296 296 296 296 297 297 297 296 296 293 295 293 289 288 288 289 294 296 295 295 295 296 294 294 296 290 290 295 279 287 277 281 277 277 275 274 274 274 274 275 275
Wind_Speed
17 18 18 18 19 20 20 21 23 24 24 24 25 26 28 30 31 31 32 32 31 30 29 29 24 13 0 1 9 7 9 11 10 10 9 5 5 6 6 5 3 4 4 4 6 6 5
16 17 18 18 19 20 21 22 23 24 24 25 26 29 31 32 33 33 33 32 32 31 29 29 19 5 2 4 3 7 10 10 8 9 8 8 7 6 4 4 6 3 3 6 5 7 5
18 18 19 19 20 22 22 23 24 25 26 26 27 28 31 33 34 35 34 34 32 30 30 23 13 4 2 13 4 8 10 8 9 8 5 6 6 4 4 2 2 1 5 6 6 5 6
17 18 18 19 20 20 22 23 23 24 25 26 27 29 32 34 36 37 35 34 31 32 23 10 6 6 7 4 5 11 11 7 6 7 3 5 6 3 3 2 5 2 1 3 1 5 2
17 18 19 20 20 21 21 21 22 23 24 26 27 30 32 35 36 37 36 32 31 15 5 2 5 3 8 2 4 10 13 6 9 6 5 8 5 3 3 4 3 2 4 6 8 6 3
17 17 18 19 20 20 21 22 23 23 24 25 26 29 33 36 38 38 28 27 12 1 2 2 0 1 5 2 1 3 10 10 3 5 3 3 4 3 2 4 6 7 5 5 6 3 3
16 19 19 19 21 21 22 22 23 25 26 27 28 32 35 38 42 28 24 8 6 3 4 6 3 4 4 5 1 2 5 6 3 3 6 3 4 9 17 13 3 3 5 6 4 5 4
17 17 19 20 21 22 23 23 24 25 26 27 29 33 36 38 36 20 15 5 2 5 11 8 9 8 11 5 3 4 9 6 5 7 5 2 10 13 5 6 7 5 4 9 4 4 7
17 18 19 21 22 22 23 24 25 25 26 28 29 31 34 36 23 18 8 8 15 3 4 6 4 3 1 7 5 5 9 4 5 6 7 8 4 4 7 5 7 5 10 5 10 3 4
17 18 19 21 22 24 24 24 25 26 27 29 29 28 29 35 6 22 3 16 16 3 3 6 2 1 3 2 2 1 6 3 2 8 5 7 5 5 3 6 7 4 9 10 4 3 4
18 19 19 20 22 23 23 26 24 25 27 29 30 29 25 25 15 8 9 18 11 1 6 1 2 2 2 3 1 1 1 0 4 4 5 6 4 4 5 9 10 8 5 6 3 3 2
17 18 19 20 21 21 22 24 23 24 26 28 29 29 28 20 16 9 17 18 1 4 8 1 1 1 2 3 3 1 2 2 1 3 3 7 2 4 6 3 6 4 4 5 4 2 3
20 20 20 20 21 21 21 22 23 24 26 29 31 31 30 14 5 12 17 4 4 4 4 1 2 3 2 3 3 5 5 4 5 1 4 3 5 3 4 3 3 3 5 2 2 1 6
21 21 22 23 22 21 22 21 22 24 26 30 31 30 25 13 7 9 6 4 4 3 4 3 3 4 5 2 2 3 3 4 6 3 2 4 5 7 4 6 6 6 7 5 7 4 3
23 23 23 23 23 23 22 23 22 23 26 30 33 24 17 3 4 4 1 2 6 5 1 3 4 2 3 2 1 2 5 4 6 9 8 5 6 3 3 0 4 4 4 3 0 2 1
23 24 23 24 23 22 24 23 22 22 23 25 27 12 10 3 5 0 3 6 5 2 3 1 3 2 4 2 2 1 3 3 3 5 2 3 4 2 2 1 1 5 3 2 0 4 5
25 24 24 25 25 25 24 23 22 21 19 20 8 4 3 10 1 1 4 6 5 4 3 4 3 4 4 3 2 3 4 4 1 2 1 3 3 3 2 3 5 1 2 1 1 3 4
25 25 25 25 26 27 24 24 23 22 20 9 4 3 3 12 2 2 3 3 5 4 2 5 3 6 5 3 5 5 7 5 3 3 3 1 4 5 7 2 1 2 2 3 4 4 1
25 26 26 26 27 27 25 24 24 24 18 6 2 3 4 3 3 3 4 5 4 3 3 4 4 5 2 3 4 5 2 2 1 2 3 2 2 1 4 3 2 2 1 4 4 1 3
26 27 26 26 28 27 26 24 24 24 18 6 2 3 3 1 3 3 5 7 5 4 5 5 5 4 4 4 6 5 4 4 4 5 5 4 6 6 7 3 3 2 2 2 3 2 3
26 26 26 27 26 27 27 26 24 23 17 8 3 4 3 3 4 5 3 3 6 7 2 2 4 4 7 6 2 8 4 3 5 6 3 4 4 7 5 4 4 6 11 6 9 9 7
27 27 27 27 27 26 25 25 26 25 20 9 2 2 2 3 2 5 4 5 14 17 6 14 15 15 9 8 8 8 2 3 5 1 3 1 2 3 5 9 10 12 11 10 13 11 11
29 29 29 28 28 26 25 26 25 25 20 6 7 6 3 11 5 5 6 7 11 6 7 17 18 16 11 14 11 11 8 6 7 5 4 3 2 2 5 3 2 4 7 4 5 6 2
29 29 29 29 28 25 24 23 23 23 19 17 8 6 4 9 9 10 8 10 16 17 10 16 9 11 5 4 3 4 4 8 11 16 12 8 4 5 4 3 6 2 4 4 14 7 6
28 27 27 27 27 24 24 22 21 22 22 22 19 5 3 4 6 9 12 15 13 8 11 9 18 9 4 6 4 3 3 4 5 10 8 11 7 3 3 4 2 4 2 2 3 3 4
26 25 25 25 25 23 23 23 21 21 22 20 19 13 3 5 3 7 4 9 9 9 4 6 4 4 4 4 4 5 5 4 4 5 2 3 7 4 3 4 6 1 2 6 3 2 6
24 23 24 23 22 21 22 19 19 20 19 19 20 16 7 3 3 3 3 3 4 3 3 2 3 3 4 3 3 2 3 3 3 4 4 2 3 10 9 5 1 5 11 6 3 1 6
22 22 22 22 20 20 20 20 20 20 20 18 20 14 10 3 3 5 3 3 2 2 2 2 4 2 2 2 2 3 2 4 1 1 1 4 2 2 2 5 4 15 1 1 3 4 7
22 21 21 22 21 21 21 21 21 20 21 14 6 13 15 2 2 0 11 13 7 6 4 3 3 3 3 2 2 1 2 1 2 1 6 1 4 2 4 4 5 7 11 7 6 4 9
Wind_Direction
19 16 10 6 2 359 357 353 350 350 350 351 348 345 343 341 339 337 334 331 330 329 328 329 325 321 291 223 246 187 174 177 174 175 180 155 153 157 182 191 163 221 244 223 242 264 244
14 9 5 2 359 358 359 357 354 354 352 350 348 344 342 340 337 333 330 327 325 323 321 321 313 305 158 240 228 184 181 179 191 175 170 156 192 191 182 208 176 196 242 267 272 245 224
15 12 10 7 2 359 358 356 354 353 351 349 347 345 343 340 338 334 328 323 321 316 314 311 297 200 211 240 212 187 185 196 197 192 161 194 172 151 139 236 273 298 305 307 226 228 228
16 13 10 6 4 0 357 354 353 352 351 349 347 345 342 339 336 332 327 321 319 313 309 290 253 163 241 241 215 202 188 173 177 186 177 151 162 117 167 235 360 303 128 299 248 156 272
15 8 5 3 0 357 355 353 350 350 350 347 345 344 343 341 338 332 326 320 314 313 300 204 144 155 261 262 212 220 200 178 168 163 156 133 120 128 71 120 347 332 240 208 307 201 134
7 2 357 354 352 352 351 350 349 347 345 345 344 343 342 342 341 335 328 323 324 286 99 191 261 28 262 249 160 169 187 168 142 122 78 87 63 126 86 133 219 210 216 235 235 193 165
2 356 354 352 349 347 345 343 343 343 342 341 341 341 343 343 343 346 346 352 12 348 10 226 209 264 320 326 207 167 160 143 100 110 177 199 153 205 205 201 182 182 195 226 231 223 218
358 357 353 350 349 345 341 339 338 338 337 335 337 339 341 342 344 357 28 62 66 290 302 259 256 262 265 239 305 214 168 166 165 199 130 123 224 227 188 186 210 196 212 255 281 247 193
357 355 354 350 349 347 345 344 342 340 337 334 334 336 337 340 341 355 33 36 342 223 274 298 237 230 199 144 218 244 160 157 172 171 203 196 239 152 164 179 196 207 222 215 243 333 252
356 353 351 348 347 345 341 339 342 341 340 340 335 333 337 343 355 339 326 348 349 178 320 275 269 256 141 148 266 199 196 158 201 211 192 240 239 192 184 221 171 230 217 223 229 135 232
352 349 347 346 342 342 343 342 337 339 339 337 337 334 336 342 304 313 312 329 337 224 341 112 168 179 130 170 170 163 131 77 217 203 133 252 174 161 192 226 168 235 142 169 162 181 353
342 340 341 339 338 338 340 340 338 337 338 336 333 334 335 333 312 295 320 321 282 53 254 306 22 317 1 176 191 128 117 79 126 195 219 249 266 217 214 195 177 132 91 48 51 103 265
331 331 329 326 327 329 331 335 338 337 335 334 333 329 326 315 275 320 323 344 33 167 352 321 314 22 338 247 223 175 178 187 197 174 232 269 227 234 174 181 167 140 97 287 263 190 232
329 329 327 322 318 322 323 324 330 333 334 334 331 328 323 307 289 319 339 52 211 235 263 3 339 305 229 180 226 199 188 232 216 137 160 207 283 185 182 199 186 185 168 176 225 197 202
325 325 324 321 322 317 319 322 324 328 331 334 332 331 313 295 297 302 146 152 226 225 306 350 304 256 273 246 283 337 221 219 207 180 189 186 258 268 212 198 158 179 187 199 136 77 94
322 322 321 319 318 317 319 316 323 322 327 334 333 319 303 328 313 94 196 243 258 244 324 15 242 215 255 268 303 286 227 207 214 195 169 235 286 224 257 178 178 170 170 97 58 208 221
319 321 319 318 316 317 318 319 319 317 317 327 337 342 342 335 258 240 236 243 301 293 278 230 257 284 242 280 233 246 255 292 237 182 171 186 178 271 306 191 191 234 221 100 223 185 226
318 317 317 315 314 318 313 317 312 312 315 316 313 285 283 337 302 229 238 255 326 301 312 277 231 225 229 237 268 237 234 234 25 167 200 176 162 241 239 255 19 83 228 188 219 224 181
318 317 318 316 316 317 317 315 315 316 311 293 255 264 295 160 230 251 297 284 278 289 286 307 295 227 219 227 264 225 261 294 68 133 185 168 214 279 300 11 16 137 108 106 102 123 199
317 317 315 315 316 315 313 314 314 316 303 257 255 278 295 249 169 208 267 262 247 253 253 253 257 265 269 278 225 270 267 278 231 188 240 163 192 194 231 176 120 224 159 139 140 221 238
316 315 315 314 312 311 311 312 312 311 301 275 194 232 217 241 242 223 230 282 289 287 251 302 288 269 231 266 268 258 264 323 275 339 224 218 234 205 236 229 216 234 262 213 214 227 228
313 315 312 312 312 311 311 311 311 310 306 279 241 260 189 257 223 217 244 224 266 265 245 270 263 266 252 259 223 258 219 180 246 170 227 307 284 186 253 234 224 245 250 231 241 249 242
314 310 308 306 307 311 315 316 313 313 313 263 209 222 230 266 229 200 211 225 243 251 253 251 258 266 255 257 257 250 244 215 221 215 220 231 227 222 257 262 129 248 235 231 97 55 45
316 315 312 310 308 309 307 308 315 312 310 297 276 240 221 253 224 234 230 238 251 260 267 275 286 280 266 323 238 230 258 246 245 251 235 240 213 221 251 130 234 76 31 116 106 74 53
322 321 320 319 317 307 311 311 309 314 312 304 294 257 281 274 210 221 234 237 263 277 267 269 277 249 231 216 257 257 325 342 265 249 245 240 246 241 223 195 72 175 69 135 152 103 359
338 334 329 326 321 318 316 312 308 314 312 309 298 268 260 304 218 255 224 235 250 265 273 250 252 207 215 251 220 225 216 205 303 339 205 225 236 230 194 220 219 112 23 354 325 136 1
342 340 336 332 331 328 323 318 317 315 314 308 298 288 246 244 232 168 216 223 199 212 250 321 265 245 201 254 251 192 225 180 218 209 180 177 215 219 230 244 27 356 311 300 195 150 333
349 347 344 341 340 337 332 326 321 319 317 314 296 291 252 246 226 204 218 236 273 202 237 258 282 197 180 244 222 226 204 205 119 10 247 159 225 192 218 203 209 346 65 61 359 351 5
355 351 347 345 342 338 333 326 322 319 318 315 287 304 313 216 281 79 79 60 38 342 304 222 234 203 236 189 222 179 241 135 199 243 18 79 1 26 16 84 71 30 67 40 16 0 6